Tracking 33068 objects as of 24-Jan-2026
HD Live streaming from Space Station
objects crossing your sky now

QAEM 100 R/B

Track QAEM 100 R/B now!
10-day predictions


NORAD ID: 58818
Int'l Code: 2024-015B
Perigee: 722.0 km
Apogee: 781.5 km
Inclination: 64.5 °
Period: 99.7 minutes
Semi major axis: 7122 km
RCS: Unknown
Launch date: January 20, 2024
Source: Iran (IRAN)
Launch site: Sharud Missile Test Site (SMTS)

Note: This is a ROCKET BODY
Your satellite tracking list
Your tracking list is empty




NASA's NSSDC Master Catalog

Two Line Element Set (TLE):
1 58818U 24015B   26024.01061563  .00000645  00000-0  21685-3 0  9998
2 58818  64.5027 133.6802 0041753 264.7747  94.8574 14.44215090106088
Source of the keplerian elements: AFSPC